FENGYUN 1C DEB, 37053

Orbit data source: Space-Track

FENGYUN 1C DEB, 37053 is space debris in SSO originally from a launch on Mon, 10 May 1999 UTC launched from the Taiyaun Space Center, China (TSC). Fengyun 1C debris stems from the Chinese weather satellite Fengyun-1C, which was intentionally destroyed by a Chinese anti-satellite missile in 2007. This event dramatically increased the amount of space debris, with thousands of trackable fragments posing hazards to satellites and human spaceflight. The Fengyun 1C debris cloud has become a focal point in discussions about space sustainability and the need for international regulations to prevent the creation of new debris.

Loading next visibility...
Identifier
37053, 1999-025EEM
Orbit
SSO
Country
Flag of CNCN / PRC
Related business
Manufacturer
Unknown
Mission
Spacecraft
Bus & Motor
Unknown
Mass
Unknown
Launch date (UTC)
1999-05-10 (27 years ago)
Launch vehicle
Unknown
Launch site
Taiyaun Space Center, China (TSC)
Object type
Payload
Rocket body
Debris
Shape & HBR
Unknown shape, 0.1 m
Radar Cross Section
Small (<0.1 m²)

Expand to show TLE details & history
Last TLE update: 1 week ago

TLE from 1 week ago
0 FENGYUN 1C DEB
1 37053U 99025EEM 26064.12588343  .00008540  00000-0  19758-2 0  9994
2 37053  99.1400 182.7405 0040429 282.1567 203.1264 14.54910474662359
Epoch: 2026-03-05T03:01Z
TLE epoch observation values (Epoch: 2026-03-05T03:01:16.328Z)
Latitude
53.97815°
Longitude
167.25589°
Altitude
744.872 km
Speed
7.474 km/s
True Right ascension
01h 01m 49s
True Declination
53° 48' 51"
Sunlit
Object was in daylight at epoch
Visualization orbit readout
Latitude
Unknown
Longitude
Unknown
Altitude
Unknown
Speed
Unknown
Apparent Right ascension
Unknown
Apparent Declination
Unknown
Sunlit
N/A
Visualization observer readout
Local Sidereal Time
00:27:19
Azimuth
Unknown
Elevation
Unknown
Doppler factor
Unknown
Orbital elements
Apogee altitude
735.433 km
Perigee altitude
678.145 km
Semi-major axis
7,084.926 km
Eccentricity
0.00404
Inclination
99.14°
RAAN
182.7405°
Arg. of periapsis
282.1567°
True anomaly
202.94528°
Mean anomaly
203.1264°
Eccentric anomaly
203.03576°
Mean motion
3.63949 °/min
Orbital period
98.92 mins
BSTAR
0.0019758
Loading maneuver chart data...
Computing Atmospheric mass density...
Loading historical data...
Loading historical data...
Loading historical data...
Loading historical data...
Loading historical data...
Loading historical data...
Loading historical data...

Documentation

Showing up to 5 results
|